Location: Moena
(46.3667°N, 11.6500°E)
Time: 14:34:55
(UTC+00:00)

Cosmos 2333 Rocket - Pass Details

Date: 19 June 2021
Orbit: 841 x 861 km, 70.8° (Epoch: 26 July)

Event Time Altitude Azimuth Distance (km) Brightness Sun altitude
Rises 22:13:20 0° 239° (WSW) 3,426 5.2 -18.8°
Reaches altitude 10° 22:16:06 10° 250° (WSW) 2,491 4.6 -18.9°
Maximum altitude 22:21:05 30° 310° (NW) 1,497 4.0 -19.1°
Drops below altitude 10° 22:26:04 10° 11° (N) 2,492 5.7 -19.3°
Sets 22:28:51 0° 22° (NNE) 3,428 6.3 -19.4°
